Simultaneous Nadir Overpasses (SNOs) Predictions

Prediction of SNOs between METOP-C and LANDSAT-8 Satellite Orbit:

Table of predicted SNOs for the next 14.0 days since TLE Epoch: 7/31/2021
Index Date (METOP-C) Time (METOP-C) Lat,Lon (METOP-C) SZA (METOP-C ) Date (LANDSAT-8) Time (LANDSAT-8) Lat,Lon (LANDSAT-8) SZA (LANDSAT-8 ) Distance(km) Time Diff (sec)
1 07/31/2021 04:06:26 -81.15, -21.36 115.06 07/31/2021 04:07:30 -81.15, -21.41 115.05 0.94 64
2 07/31/2021 04:57:05 81.18, 146.73 65.05 07/31/2021 04:56:55 81.18, 146.70 65.04 0.45 10
3 08/02/2021 23:40:45 -81.16, 45.34 114.31 08/02/2021 23:41:45 -81.16, 45.23 114.30 1.80 60
4 08/03/2021 00:31:24 81.19,-146.55 65.80 08/03/2021 00:31:10 81.19,-146.68 65.78 2.34 14
5 08/05/2021 19:15:05 -81.17, 112.03 113.52 08/05/2021 19:16:01 -81.17, 111.85 113.51 3.09 56
6 08/05/2021 20:05:46 81.17, -80.60 66.50 08/05/2021 20:05:27 81.17, -80.47 66.51 2.21 19
7 08/08/2021 14:49:27 -81.16, 177.95 112.79 08/08/2021 14:50:18 -81.16, 178.06 112.75 1.96 51
8 08/08/2021 15:40:06 81.18, -13.91 67.33 08/08/2021 15:39:43 81.18, -13.92 67.32 0.17 23
9 08/11/2021 10:23:46 -81.16,-115.39 111.93 08/11/2021 10:24:33 -81.17,-115.39 111.91 0.16 47



Historial Predications of SNOs between METOP-C and LANDSAT-8
